RH
47 47 47 47 47 47 46 44 41 38 35 33 32 32 31 29 27 25 24 23 23 23 25 27 30 31 32 38 51 65 74 77 74 71 65 55 54 53 52 52 53 54 55 57 59 58 57 58 59 60 64 69 76 82 87 89 91 97 101 99 92 84 77 71 64 58 51 45 40 34 30 28 27 29 30 30 27 24 21 20 20 18 19 21 23 24 24 25
48 46 45 45 45 45 46 47 46 44 41 37 34 32 32 31 30 28 26 24 23 23 23 23 25 28 30 30 34 45 58 71 81 89 82 68 67 65 61 64 65 64 64 67 67 67 65 64 64 65 66 68 72 75 81 87 94 102 104 99 92 84 77 70 64 57 50 44 38 32 29 27 26 28 29 28 26 25 24 23 21 18 18 19 22 25 24 24
50 47 44 41 40 41 42 45 47 48 47 44 41 36 33 32 31 30 28 26 24 23 22 23 23 24 27 28 29 33 40 52 67 83 85 82 86 84 78 79 80 77 77 78 76 76 76 74 72 71 70 69 71 75 81 90 99 106 104 97 89 82 75 69 62 54 47 41 35 30 27 26 26 27 27 25 25 27 27 25 22 20 19 20 21 24 23 22
50 47 43 39 37 37 38 40 43 46 49 48 46 43 38 34 32 31 30 29 27 25 24 23 23 22 23 25 27 29 33 39 49 62 71 82 94 96 94 95 95 92 90 88 85 86 86 85 82 79 77 76 77 82 90 97 102 105 100 91 85 79 73 65 56 47 41 35 29 26 24 23 24 25 25 24 26 27 28 26 24 23 22 22 21 20 21 22
46 45 43 40 38 36 36 36 37 40 44 47 48 47 44 40 35 32 31 30 29 27 26 24 23 23 22 23 24 26 30 34 40 46 53 67 83 93 100 104 105 103 101 99 97 96 94 94 92 90 90 90 91 95 101 102 101 101 94 86 82 76 67 56 46 37 32 28 25 23 21 21 21 21 22 23 26 26 25 25 25 25 24 23 22 20 21 23
45 45 44 42 40 39 38 36 35 36 38 42 45 47 47 45 40 35 31 30 30 29 27 26 25 24 23 23 23 24 26 31 38 41 42 50 64 76 88 98 104 105 105 106 105 103 101 99 99 100 99 99 101 102 103 101 98 96 89 83 76 65 53 42 34 30 26 24 23 22 21 20 19 20 21 22 24 24 23 24 25 25 25 24 23 24 23 23
42 43 43 42 41 40 39 38 36 35 35 38 41 44 46 47 44 40 35 31 30 29 28 27 26 25 24 24 24 24 24 26 34 40 40 42 50 58 68 81 92 98 102 104 104 103 102 100 99 100 99 99 100 100 97 95 92 87 79 70 59 47 38 32 28 26 24 24 23 22 20 19 19 20 21 22 23 24 22 21 23 24 25 26 24 26 27 24
38 39 40 42 43 42 41 41 40 39 38 39 40 42 45 46 45 42 38 34 31 30 30 29 27 27 26 26 25 24 25 24 28 36 39 41 45 49 55 64 74 84 91 94 95 94 94 94 94 94 94 95 95 92 88 84 77 67 58 48 40 35 31 28 26 25 23 24 23 21 20 19 19 19 21 22 23 23 21 20 22 24 25 25 26 27 27 26
38 39 40 41 42 43 43 43 43 43 42 42 41 42 44 46 45 43 41 38 34 31 30 29 28 28 27 27 27 26 26 25 25 30 37 44 48 50 51 54 60 68 74 77 79 81 82 82 82 81 81 81 79 76 71 64 54 45 40 36 33 31 29 27 26 25 25 24 24 22 21 20 19 20 22 23 23 21 20 20 22 23 24 24 26 27 26 25
40 41 42 42 43 43 44 45 46 46 45 44 43 42 43 45 46 44 43 41 39 35 32 30 29 28 28 27 28 28 26 26 26 26 31 41 50 54 53 52 52 56 60 63 65 67 69 68 67 65 62 61 59 56 52 47 42 38 36 34 32 30 28 28 27 27 26 25 25 24 22 21 21 21 22 22 22 21 21 22 23 23 23 24 25 26 26 25
40 41 42 43 44 45 46 47 48 48 48 46 45 44 43 44 46 46 44 43 42 39 35 32 29 28 29 29 29 29 28 26 27 27 27 33 46 55 56 54 52 52 53 55 56 57 58 57 54 51 49 48 46 45 43 41 39 37 34 32 31 30 30 30 30 29 27 27 27 26 25 24 23 22 22 23 23 23 23 23 23 23 23 24 25 25 26 24
41 40 41 42 43 45 46 47 48 49 50 48 46 45 43 43 46 47 46 45 44 42 39 35 32 29 28 30 30 29 28 28 28 29 28 28 35 48 57 60 58 56 54 53 53 52 51 49 46 44 43 42 42 43 42 41 38 36 34 33 33 32 33 32 32 30 29 30 28 28 28 27 26 24 25 25 25 24 24 25 24 23 23 24 24 24 25 24
44 42 43 43 44 46 47 49 50 50 50 49 48 47 45 44 46 48 48 47 46 44 41 38 35 31 29 30 30 28 28 30 30 30 30 28 29 38 52 63 65 63 59 57 55 53 52 50 49 49 47 47 48 47 44 41 38 35 33 34 35 35 35 34 33 33 32 31 29 30 30 30 29 28 29 28 27 26 25 26 25 24 24 23 23 23 23 23
49 48 47 48 49 50 51 52 52 52 51 51 52 51 48 46 48 50 50 49 47 44 41 40 38 34 31 30 29 29 30 32 33 32 31 30 30 32 42 56 68 72 69 67 65 64 63 62 62 61 58 55 52 47 43 41 37 35 35 38 40 39 38 37 36 35 33 32 31 32 32 32 32 32 31 30 29 28 27 27 26 25 24 23 23 22 22 22
50 50 50 51 51 51 52 51 50 49 49 49 50 49 48 47 47 48 49 49 47 44 41 40 39 36 34 31 30 30 31 34 34 33 31 30 30 31 34 42 58 72 79 80 79 78 77 76 74 71 64 55 49 47 44 41 38 37 41 46 47 44 41 39 37 35 34 33 33 34 35 34 35 34 33 31 30 28 28 28 26 26 24 23 22 21 21 21
45 46 47 46 46 46 45 44 43 43 42 43 43 43 43 42 43 43 46 47 44 43 41 40 40 38 35 32 31 32 34 36 35 33 33 32 32 33 33 34 40 53 68 80 85 86 84 81 77 70 63 56 52 49 43 41 41 44 49 51 48 43 41 39 37 36 35 35 35 35 36 36 36 36 35 33 31 30 28 27 27 26 25 23 22 21 20 20
39 39 39 39 39 38 38 38 37 38 38 38 38 38 38 37 38 38 39 41 41 40 39 39 38 37 36 33 34 35 35 34 32 32 33 33 32 33 35 35 35 38 45 56 65 69 71 70 67 61 56 52 47 42 40 45 50 53 52 49 46 42 40 39 38 38 37 36 37 36 37 38 37 37 37 36 32 31 29 27 27 26 25 24 22 21 21 20
36 35 35 34 35 34 35 35 34 35 35 35 35 35 34 34 34 34 35 36 36 37 37 38 37 37 35 34 36 36 36 36 32 31 34 36 36 35 37 37 36 36 36 37 40 43 46 46 45 44 42 41 41 46 55 61 61 57 52 47 45 42 41 40 39 39 38 37 37 37 38 39 40 40 38 36 33 31 29 28 27 26 26 25 23 22 21 21
35 33 32 32 32 32 32 32 32 32 32 32 32 32 31 31 32 33 33 34 34 36 36 36 37 37 35 34 36 35 37 40 39 37 36 38 40 40 42 42 40 39 38 37 35 33 33 33 34 36 41 48 56 65 71 69 62 55 50 46 44 42 42 41 40 39 38 38 38 38 40 42 43 42 38 35 33 31 29 28 27 27 26 24 24 23 22 22
32 31 30 30 30 30 30 30 30 30 30 30 30 29 29 29 30 31 32 33 34 34 34 35 37 37 35 34 34 34 39 46 58 63 51 42 47 49 48 44 41 41 40 39 37 35 34 34 38 47 59 67 72 76 74 66 58 52 48 44 43 42 42 41 41 39 38 39 39 41 44 45 43 40 36 33 32 31 29 28 28 27 26 25 24 24 23 23
30 28 28 29 28 29 28 28 28 28 28 27 26 24 24 24 24 26 27 28 30 30 33 35 36 37 35 33 32 36 43 53 72 79 58 44 49 51 49 45 43 44 43 40 38 36 37 46 62 76 82 81 79 76 68 59 52 47 44 43 43 43 42 42 41 40 40 42 44 46 46 43 39 36 33 31 30 29 27 27 27 26 25 25 25 25 24 23
27 26 26 26 26 26 24 24 23 23 21 19 18 17 16 16 16 17 18 20 22 25 28 31 33 34 34 33 33 39 49 60 78 79 61 54 55 53 52 52 50 48 44 40 38 43 58 80 96 101 94 86 78 67 57 51 46 45 44 44 44 44 44 44 43 43 45 47 48 45 40 35 33 33 33 31 29 28 26 26 26 25 25 24 25 25 25 25
24 22 22 21 21 20 18 17 15 14 13 11 10 10 9 10 10 11 12 13 15 18 23 28 30 31 32 33 38 52 66 75 86 86 76 72 67 59 56 56 54 49 44 44 52 72 91 102 102 99 91 78 65 54 48 46 45 46 46 45 47 50 51 49 48 49 48 46 41 36 33 31 32 33 32 30 28 27 26 24 24 24 24 25 25 25 26 28
16 15 15 14 13 12 10 9 9 8 8 7 7 8 7 8 8 9 9 10 13 17 22 25 27 31 32 36 49 65 76 81 84 85 82 77 67 61 60 60 57 53 56 66 83 101 104 99 97 93 79 61 51 48 48 48 49 49 47 49 56 59 57 54 52 49 43 38 33 33 33 32 32 31 30 31 30 27 25 25 24 24 25 26 25 26 26 27
9 8 8 8 7 7 7 7 7 7 6 7 7 7 8 8 8 8 9 11 14 20 24 27 32 34 36 51 71 75 71 72 77 80 80 74 68 68 69 71 71 73 84 95 104 107 101 98 95 80 60 49 48 50 51 51 49 48 52 61 66 64 58 54 49 42 37 35 33 34 32 32 32 30 38 46 39 31 26 24 23 22 23 24 25 25 25 26
6 6 5 6 6 6 7 7 7 6 7 8 8 8 8 8 8 10 11 14 22 31 36 38 40 43 57 82 96 86 76 79 86 88 85 80 82 83 80 85 93 98 103 106 105 103 100 95 80 61 51 50 53 55 55 53 53 59 69 72 67 61 55 49 42 38 37 37 36 34 33 35 33 34 53 60 46 41 39 33 30 27 26 27 27 28 28 28
6 6 6 6 6 6 6 6 6 7 7 7 7 8 8 10 14 16 21 31 46 57 62 62 59 66 88 105 102 93 92 97 102 100 96 95 99 101 97 100 106 106 104 104 103 101 95 83 65 55 55 56 60 63 60 58 65 76 77 69 63 58 51 45 41 40 39 40 38 35 34 38 36 38 53 53 42 47 49 44 42 40 37 35 35 35 33 31
6 6 6 5 5 6 5 5 6 6 7 7 8 9 12 20 29 35 46 63 76 83 89 90 86 90 102 104 100 100 99 100 103 103 102 104 106 106 104 103 105 105 104 103 103 99 88 73 61 57 59 63 67 67 66 71 81 82 70 63 62 58 51 47 45 41 42 43 41 38 35 38 41 43 47 44 40 45 47 47 50 48 45 40 38 38 33 30
5 5 5 5 5 5 5 6 6 6 7 8 8 12 18 32 48 63 78 92 97 98 101 101 98 101 104 103 104 103 99 100 103 100 99 102 106 105 103 102 101 104 106 104 102 98 85 71 64 62 62 66 68 71 79 85 84 76 65 63 65 62 56 53 49 46 46 45 43 45 43 39 41 43 45 45 43 44 47 50 53 51 49 45 42 42 37 31
5 5 5 5 5 5 6 6 6 8 8 9 14 24 39 56 73 88 98 103 104 103 102 102 103 104 104 103 103 101 100 102 102 99 97 99 103 104 103 103 99 98 102 104 102 98 88 76 69 67 68 71 77 85 91 89 83 77 73 74 74 68 61 56 54 54 50 47 50 56 53 44 41 43 47 48 45 43 43 45 46 44 43 42 42 42 39 34
5 5 5 5 6 6 6 7 9 10 11 18 32 49 68 83 93 99 102 102 103 103 101 102 103 103 103 102 101 100 100 101 100 100 101 101 101 102 103 102 98 98 102 104 103 99 94 87 79 76 77 83 90 94 96 96 94 88 85 85 80 70 64 62 64 61 54 54 60 60 54 49 47 47 50 53 52 49 47 45 45 43 39 37 37 36 34 32
5 5 5 6 6 7 8 10 11 15 24 37 54 75 91 99 100 100 101 101 101 102 102 101 101 102 103 102 101 100 100 100 100 100 102 102 101 103 104 101 101 103 104 105 105 102 101 98 94 92 90 93 95 96 102 105 100 92 90 88 80 72 71 71 71 69 66 66 65 60 57 56 53 51 54 59 61 60 57 54 52 48 44 39 36 33 30 28
6 6 6 7 9 12 13 14 17 29 47 63 78 95 104 103 101 101 100 101 100 101 101 100 101 102 102 102 101 100 101 101 100 100 101 102 101 102 103 102 102 103 104 106 106 104 104 99 96 98 97 98 100 103 108 105 93 89 89 84 78 78 81 84 85 82 75 69 65 64 67 67 61 57 58 61 64 66 64 61 55 51 47 41 36 33 28 26
6 8 9 11 14 17 17 23 37 55 73 86 96 104 105 100 100 101 100 100 100 100 100 100 100 101 100 101 101 101 102 102 101 101 101 101 101 101 101 100 100 99 102 104 102 102 101 96 95 98 99 101 105 107 105 99 91 90 90 88 89 95 99 97 92 82 72 68 69 73 76 72 66 62 60 60 63 67 68 64 56 49 46 41 36 32 28 25
8 11 14 19 24 26 31 49 71 85 94 100 103 103 101 100 100 100 100 100 100 100 101 100 100 101 100 100 101 102 101 101 101 101 100 100 101 100 100 100 101 101 102 102 102 103 102 102 104 105 103 105 107 105 102 101 100 99 99 100 100 102 100 92 85 79 75 75 76 77 77 73 69 65 61 61 63 66 68 64 55 48 44 39 34 31 27 26
14 23 33 40 42 46 60 82 97 101 103 103 102 100 100 100 100 100 100 100 100 99 99 101 100 100 100 100 100 101 100 100 100 99 99 99 100 101 100 100 100 100 100 101 102 102 102 104 107 104 103 104 103 102 103 104 103 101 101 102 100 97 91 86 85 82 79 80 79 79 81 77 71 66 64 66 68 69 67 60 53 47 42 36 33 32 27 26
32 47 57 59 60 71 90 102 103 102 103 101 100 100 100 100 100 100 100 100 100 97 97 102 103 101 100 100 100 100 100 100 100 99 99 99 100 100 100 100 100 100 101 101 101 98 94 95 96 96 99 103 102 98 99 100 99 99 101 102 98 93 89 89 89 84 83 87 86 84 85 79 73 75 76 74 74 71 63 54 49 44 40 35 31 31 27 24
54 66 72 70 75 92 105 105 102 103 102 101 101 100 100 100 100 100 100 100 100 99 97 100 102 102 100 100 100 100 100 100 100 100 100 99 99 100 100 100 100 99 96 94 96 94 90 89 92 96 101 106 105 98 98 100 100 102 104 102 96 90 89 91 93 89 87 88 84 83 87 85 83 87 84 78 74 68 58 49 44 40 36 33 32 33 29 26
71 79 84 84 90 102 104 101 102 104 102 101 100 100 99 100 100 100 100 100 100 101 99 98 101 104 103 100 98 97 98 100 100 100 100 100 100 100 101 101 100 100 99 98 98 97 96 97 99 103 105 108 106 102 103 106 107 105 101 95 93 91 92 94 96 94 90 92 94 95 96 94 94 95 88 81 73 63 55 48 43 39 34 34 39 40 33 39
83 90 95 96 100 104 100 100 102 102 101 100 100 101 101 100 100 99 100 100 100 102 103 103 104 106 107 105 101 99 100 102 101 100 99 100 101 100 99 100 101 103 105 107 108 104 103 105 104 105 107 106 105 105 105 105 103 101 95 92 95 97 98 99 101 101 102 104 102 100 100 98 99 97 88 80 71 63 59 52 44 40 36 42 51 50 50 68
93 97 101 101 103 102 99 101 102 100 101 101 100 99 100 100 99 100 100 100 100 101 104 105 102 101 103 105 107 103 102 104 103 102 101 100 100 98 95 93 94 98 101 105 107 105 106 106 104 106 107 106 105 104 104 102 99 98 95 94 98 101 102 105 106 107 108 105 99 100 102 96 91 89 86 82 74 65 60 53 47 43 42 54 65 64 76 97
98 101 102 102 101 100 100 102 101 101 101 99 96 95 99 101 100 100 101 100 101 101 101 101 98 97 96 100 105 105 103 105 104 104 106 106 104 102 100 98 97 100 102 104 106 106 105 104 104 105 103 103 103 101 103 105 103 101 98 96 100 104 105 107 107 106 107 104 102 105 99 87 88 93 89 81 69 62 60 53 50 51 55 70 80 80 94 108
101 101 101 100 100 100 100 100 99 99 98 95 93 94 99 103 102 100 101 100 97 95 95 95 93 93 95 96 99 100 103 106 105 103 106 108 108 107 109 108 106 106 106 106 107 107 105 104 104 105 103 102 102 100 102 106 103 98 94 93 97 100 101 105 105 102 104 105 106 105 92 86 97 100 86 71 58 58 64 56 53 62 71 82 91 95 103 108
101 100 101 100 100 101 101 100 99 99 99 97 98 101 105 107 106 103 101 100 98 95 93 90 86 85 88 91 92 93 97 103 106 106 106 106 104 103 104 106 106 107 106 104 105 106 106 106 105 105 105 104 102 98 97 99 99 97 95 96 99 101 103 107 106 102 101 101 104 101 90 89 100 95 78 65 54 55 63 57 56 72 82 86 96 102 105 107
100 99 101 101 100 101 101 101 100 100 100 100 101 106 110 109 107 103 98 97 100 102 100 97 93 88 83 83 86 89 93 98 104 108 108 107 104 102 102 103 103 103 101 99 100 103 106 109 109 109 107 103 98 94 94 96 101 104 103 102 103 105 106 107 105 101 98 98 99 96 89 91 97 88 73 64 52 51 61 56 54 77 92 91 98 104 102 103
100 99 100 101 100 101 101 100 101 101 101 101 101 103 104 102 101 102 99 96 99 105 106 103 101 96 85 78 78 82 87 93 99 104 107 108 107 105 104 103 102 102 100 98 100 102 105 108 109 109 105 99 92 90 92 96 102 107 107 105 104 103 103 102 99 95 94 98 99 96 93 95 94 83 71 64 54 51 64 61 54 79 104 98 97 103 100 100
101 100 100 101 100 101 101 100 100 99 99 100 100 99 100 99 99 102 105 105 106 107 104 99 96 92 83 74 71 72 77 83 89 94 98 101 102 102 101 99 99 101 102 101 101 104 106 106 105 102 98 95 92 93 99 104 107 110 111 110 107 104 102 99 94 90 91 95 94 91 94 91 84 77 68 63 54 49 64 70 61 78 106 104 97 102 101 99
100 100 100 101 100 100 101 100 100 100 99 100 100 101 102 101 98 99 101 102 100 97 94 93 91 88 83 76 71 70 72 76 81 84 87 90 91 92 94 94 93 92 92 93 94 96 100 102 103 101 100 99 98 99 104 108 108 108 109 107 104 103 102 98 93 90 89 91 88 89 91 83 75 72 66 58 53 49 58 68 67 79 101 104 99 101 101 101
100 100 100 100 100 100 100 100 100 100 101 99 99 101 100 96 93 92 92 93 93 90 89 90 89 87 85 83 79 77 78 80 83 85 87 88 87 88 90 91 89 85 83 84 85 86 90 95 99 102 103 103 102 102 104 105 105 104 102 101 101 100 95 90 90 90 89 91 91 89 85 78 74 72 64 58 58 56 57 63 68 80 94 101 101 100 100 102
99 101 101 101 101 100 100 100 99 99 98 96 95 95 92 88 87 87 87 91 94 93 92 91 91 93 94 94 91 87 83 82 84 88 92 96 96 94 93 92 89 86 83 82 83 83 85 90 95 100 104 104 102 101 103 102 98 95 92 93 96 95 89 87 88 89 91 94 93 88 83 82 80 72 67 69 71 68 64 65 71 80 89 95 101 102 100 99
102 101 100 101 102 99 97 97 96 95 93 90 88 87 84 83 86 89 92 95 97 98 99 98 99 100 100 100 97 90 83 79 80 84 89 95 97 94 93 93 91 90 89 87 87 85 85 86 88 92 101 106 103 102 105 102 95 92 91 91 92 92 90 88 83 83 90 93 90 89 87 85 79 72 72 80 83 76 69 70 80 89 92 94 99 102 102 99
101 100 98 97 97 95 92 90 90 90 90 90 90 90 92 94 97 100 101 101 101 103 102 97 96 97 98 99 97 90 82 77 77 80 83 87 88 85 84 84 84 86 88 89 91 91 90 90 89 89 95 99 101 106 107 101 95 95 97 98 98 95 93 88 81 81 88 87 83 86 87 82 77 74 73 78 84 78 66 66 80 92 94 96 99 99 99 100
Wind_Speed
65 65 65 65 65 65 65 65 65 64 64 63 64 66 69 72 75 78 80 83 86 89 92 94 94 92 90 88 86 86 85 83 82 82 82 81 80 80 78 77 76 75 75 74 74 74 73 72 71 70 70 69 69 68 68 67 66 67 68 70 70 69 68 67 65 64 62 61 59 57 57 59 60 62 64 63 62 61 60 57 56 54 53 52 50 48 48 47
67 67 67 67 67 67 66 67 67 67 67 67 66 66 66 69 72 75 77 80 82 84 88 91 94 94 92 90 88 88 86 85 83 84 84 81 80 80 78 78 77 76 76 75 74 74 73 72 71 71 70 70 69 69 68 68 68 68 70 71 70 69 68 67 66 65 63 62 60 59 60 61 63 64 66 64 62 62 61 58 57 55 54 54 52 51 51 50
70 70 70 70 69 68 68 67 68 68 69 70 69 68 67 67 69 71 74 77 79 81 83 86 90 93 94 93 91 90 88 86 85 86 85 80 80 80 79 78 78 77 76 75 75 74 73 73 72 72 71 71 70 70 69 68 68 69 71 70 69 68 67 66 66 65 64 63 61 61 62 63 64 66 67 65 63 63 62 60 58 56 55 55 54 54 54 53
72 72 72 72 70 70 69 68 68 69 70 71 72 71 71 69 69 69 71 74 76 78 80 83 85 89 92 93 93 92 90 88 87 88 85 82 82 81 79 79 78 77 77 76 75 75 74 73 73 72 72 71 70 70 69 69 69 70 70 69 67 67 67 66 66 66 65 64 63 62 63 64 65 67 67 66 66 66 65 62 59 57 56 56 56 57 56 54
73 73 73 72 72 71 70 70 69 70 71 72 73 73 73 73 71 70 69 71 73 75 77 80 82 84 87 90 93 94 92 90 89 89 86 84 84 82 81 80 79 78 77 76 76 75 75 74 73 72 72 71 70 70 69 69 69 70 70 68 67 67 67 67 66 65 65 64 64 64 64 65 66 68 68 67 68 69 67 64 61 59 58 57 58 59 58 56
72 72 73 72 72 71 71 71 70 70 71 72 73 74 75 75 74 72 70 70 70 73 75 77 79 81 83 86 90 93 93 92 91 91 88 86 85 84 82 81 80 79 78 77 77 76 75 74 73 73 72 71 71 70 70 70 69 70 70 68 68 68 67 66 65 64 64 64 65 66 65 65 66 68 68 68 70 71 69 66 63 60 59 59 59 60 61 59
71 71 71 71 71 70 70 70 70 70 70 71 73 74 75 76 76 75 73 71 69 70 72 74 76 78 80 82 85 88 92 94 94 93 90 88 86 85 84 82 81 80 79 79 77 77 76 75 74 74 73 72 72 72 71 69 69 70 70 69 69 67 66 65 64 64 64 65 67 67 66 65 66 67 68 68 70 71 70 67 64 62 60 60 61 62 63 62
69 69 69 69 69 68 68 68 68 68 68 69 70 73 75 77 77 77 75 73 70 69 69 72 74 76 77 79 82 84 88 92 95 94 92 89 88 86 84 83 82 81 80 79 78 77 76 76 75 75 74 74 74 72 70 69 69 70 70 69 67 66 66 65 64 64 64 66 68 67 66 65 66 66 67 67 69 70 69 66 64 63 61 60 63 65 64 63
69 69 68 68 68 68 68 68 68 68 68 68 68 70 73 76 77 77 76 75 72 70 69 70 71 73 75 76 78 81 84 88 92 94 94 91 90 88 86 84 83 82 82 81 79 78 77 77 77 76 76 75 73 71 69 68 68 70 69 68 66 66 66 65 65 65 64 66 67 67 66 65 65 64 65 67 68 69 67 64 62 62 61 61 64 66 65 64
69 69 69 68 68 68 68 68 68 68 68 68 68 69 71 73 76 77 77 76 74 73 71 69 69 70 72 74 75 78 81 85 88 92 94 93 92 90 88 86 84 84 82 81 80 79 78 78 78 77 76 74 72 70 69 69 69 70 68 67 66 66 65 64 64 65 64 65 65 66 65 64 63 63 64 66 66 65 62 60 60 60 60 61 64 67 66 65
69 69 69 69 69 68 69 69 69 69 69 68 68 68 70 72 74 75 76 75 75 74 72 70 68 67 69 71 73 76 79 81 84 88 92 93 93 91 89 87 86 85 83 82 81 80 80 79 79 77 75 73 71 70 70 69 69 69 68 66 66 65 64 64 65 65 64 63 64 63 62 62 62 63 63 63 63 61 58 56 57 58 58 60 63 65 66 66
69 69 69 69 69 69 70 70 70 69 68 68 67 67 69 70 71 73 74 75 75 75 73 71 69 67 67 68 72 75 75 77 80 84 88 91 93 92 91 89 87 86 85 84 83 82 81 80 79 77 75 74 72 71 70 69 69 68 67 66 66 65 64 65 65 63 61 61 62 60 59 60 62 62 61 61 61 59 55 53 54 55 56 58 62 65 66 66
68 69 69 69 70 69 69 69 68 67 66 65 65 66 67 68 69 71 72 74 75 75 74 72 70 68 66 67 70 72 72 73 76 81 85 87 90 92 92 91 89 88 86 85 84 83 81 80 78 77 76 74 73 72 71 69 69 67 65 66 66 65 65 64 62 61 60 60 59 57 57 59 60 61 60 60 60 58 55 54 53 53 54 58 62 64 64 64
66 67 68 68 68 67 66 66 65 64 63 63 64 65 66 67 68 70 71 72 74 74 74 72 71 69 67 67 67 68 69 72 74 78 82 85 87 89 91 91 90 89 87 86 84 83 81 80 78 77 76 75 74 72 70 69 67 65 63 64 64 64 63 61 59 58 59 59 57 55 56 58 59 60 60 60 59 57 55 54 53 52 54 59 62 62 62 62
65 65 65 65 65 64 64 64 64 63 63 63 64 65 66 67 68 69 70 71 73 74 73 71 71 70 69 67 64 65 68 71 74 75 78 81 83 86 88 89 90 89 88 86 85 83 82 80 79 78 78 77 74 70 68 67 65 62 60 61 62 62 60 59 58 58 58 57 55 54 56 59 59 60 61 61 60 58 55 54 53 53 55 59 62 62 61 61
63 64 64 64 64 65 65 65 65 65 65 65 66 67 68 68 69 69 70 71 72 73 72 71 71 71 71 67 63 64 68 72 74 73 74 77 79 82 84 85 87 87 87 86 85 84 82 81 80 79 77 75 71 68 66 64 62 60 60 61 62 60 59 58 57 57 58 56 55 54 57 60 61 60 61 60 60 58 54 53 53 53 56 59 61 61 60 60
64 64 65 65 66 66 67 67 67 67 67 68 68 69 70 70 70 70 70 71 72 72 71 71 71 72 71 67 64 66 69 72 72 70 71 73 75 78 79 80 81 82 83 84 84 83 82 80 79 77 74 71 68 65 62 61 60 60 61 61 60 58 57 56 56 56 57 55 55 55 57 61 62 61 60 59 59 58 55 54 54 53 56 59 60 59 58 58
65 66 66 67 67 68 68 68 68 68 69 70 70 71 71 71 71 71 71 72 72 71 71 72 71 72 70 67 67 68 69 70 70 69 69 70 71 72 73 75 75 76 76 77 78 78 77 77 75 72 69 65 62 59 58 59 60 60 60 58 56 56 55 55 55 56 56 56 56 57 58 61 62 62 61 59 59 58 57 56 56 55 57 59 59 58 57 57
66 67 68 68 68 68 69 69 69 69 70 71 71 72 72 71 70 70 71 71 71 71 72 72 71 71 70 68 68 68 67 68 67 66 67 67 67 67 68 69 69 69 68 68 69 69 69 68 66 63 59 58 56 56 57 59 58 57 56 54 53 54 55 55 56 56 56 57 57 57 57 58 62 63 62 60 60 59 58 58 57 57 57 58 58 57 57 57
67 68 67 67 68 69 69 70 70 70 70 71 71 71 70 70 69 69 70 70 71 72 71 71 71 71 70 68 67 66 66 66 63 63 65 64 62 61 62 62 63 62 62 62 62 61 60 58 56 54 55 55 55 55 56 56 55 54 52 52 52 54 55 56 56 57 57 57 57 57 56 57 62 65 63 61 60 60 59 57 57 57 57 56 56 57 57 58
67 67 67 67 68 69 70 69 69 70 70 70 70 69 69 68 68 69 70 71 71 71 70 70 70 70 69 67 66 66 66 66 63 63 64 61 58 56 56 57 57 57 58 59 57 55 53 50 51 53 54 54 52 53 54 53 52 51 51 51 52 54 56 56 56 57 56 56 55 56 57 57 60 64 63 61 61 60 59 57 56 56 55 54 55 55 57 58
67 67 66 67 68 68 69 68 68 68 68 68 68 67 67 67 67 68 69 71 71 70 70 70 69 69 68 66 65 65 66 66 64 64 63 58 54 53 53 53 54 55 56 55 51 49 47 49 52 53 52 50 49 51 52 51 50 50 50 50 51 54 56 56 56 56 55 55 55 55 55 55 55 58 59 60 60 59 58 56 55 54 52 52 52 53 54 56
67 66 66 66 67 67 67 66 65 65 65 64 63 62 63 63 64 66 67 68 69 68 68 68 69 69 67 65 64 64 64 65 66 65 60 55 53 52 52 52 53 54 52 49 47 47 49 52 52 50 48 48 48 49 50 50 49 49 49 49 50 54 56 55 53 54 54 53 53 52 50 50 50 51 54 57 58 58 56 54 52 50 48 48 49 49 50 52
65 64 64 64 64 63 62 60 59 59 59 57 56 56 57 58 59 61 63 64 64 64 66 68 67 66 65 64 64 64 64 64 64 61 57 54 52 51 51 52 52 50 48 46 47 49 51 50 48 46 46 47 47 49 50 49 49 48 48 48 50 54 55 52 50 50 50 49 48 46 45 46 47 47 50 53 54 55 53 50 48 46 44 46 47 47 48 49
59 58 58 57 56 55 53 52 52 52 51 49 49 51 52 53 55 57 59 60 60 62 64 65 64 64 63 62 62 63 63 60 57 56 54 52 51 51 51 51 49 47 47 47 49 50 49 47 46 46 46 47 48 49 49 49 48 48 47 47 50 53 51 48 47 46 45 44 43 42 42 42 41 42 45 49 51 51 50 47 46 44 42 44 45 46 47 48
50 49 49 49 48 47 46 46 47 45 44 45 46 48 49 50 52 54 56 57 58 60 61 62 62 61 59 58 60 60 57 54 52 53 52 50 50 51 50 49 49 48 49 49 50 49 47 46 47 47 47 47 48 48 48 48 47 47 47 48 50 51 47 45 44 42 41 40 39 39 38 37 37 37 42 47 48 45 44 43 42 41 39 41 43 44 46 47
42 42 42 42 42 41 42 42 41 41 42 44 45 47 47 49 51 53 55 56 57 58 58 59 60 58 57 58 59 56 53 52 51 51 51 50 51 51 50 49 50 50 49 49 48 47 47 47 47 47 47 47 47 47 47 47 47 47 48 48 48 47 45 43 41 39 38 39 38 37 35 35 35 36 40 45 42 39 39 38 37 37 36 38 40 42 44 45
37 37 38 37 37 38 38 38 39 40 42 44 46 48 49 51 53 54 54 55 56 57 57 58 58 58 57 57 55 54 54 52 50 52 53 52 52 52 50 51 51 51 49 48 48 49 48 48 48 48 48 47 47 47 47 47 47 49 49 46 45 45 42 40 39 37 37 37 37 36 35 35 36 36 39 41 38 35 36 36 37 38 38 39 40 42 44 44
33 34 34 34 35 36 37 38 39 41 44 46 48 50 52 54 55 55 55 55 55 56 58 58 58 57 56 56 55 55 53 50 52 55 54 52 52 52 52 53 52 51 49 48 50 50 49 49 49 49 48 47 47 47 47 47 49 50 47 43 43 43 41 39 38 37 36 36 36 37 36 35 35 35 37 39 38 36 36 37 40 41 42 42 42 42 43 43
30 31 31 32 34 35 36 38 40 43 45 47 49 51 53 55 55 55 54 54 56 58 58 58 58 57 57 57 57 55 53 53 54 54 52 50 52 52 52 53 51 48 47 47 50 50 49 49 48 47 47 46 46 47 48 49 50 49 45 42 42 42 40 38 37 37 36 35 36 38 38 36 35 35 36 38 38 37 38 39 42 43 44 44 43 45 45 45
28 29 30 32 34 35 37 40 42 44 46 48 50 53 54 55 55 54 54 54 56 57 58 57 57 57 57 57 57 56 54 53 52 52 51 50 51 52 52 50 47 45 45 46 49 50 49 49 48 47 46 46 47 48 49 50 50 48 45 44 43 42 40 37 37 38 36 35 38 40 39 37 37 37 37 39 39 39 40 41 43 45 45 45 45 46 46 47
27 29 31 32 34 37 39 42 43 45 47 50 53 54 55 55 54 52 52 52 53 55 57 57 57 57 57 57 56 55 53 52 51 52 53 52 53 54 53 51 49 47 46 48 51 51 49 50 49 48 47 48 48 49 51 51 50 48 46 46 44 42 39 37 38 38 37 38 40 40 39 39 39 38 39 41 41 42 42 43 44 46 47 47 46 46 45 45
28 30 31 34 36 39 41 42 44 47 50 52 54 55 55 54 53 52 51 51 53 57 58 58 58 58 57 56 55 54 53 52 53 54 54 54 55 55 54 52 51 49 49 51 52 51 51 51 49 49 48 48 50 51 53 52 50 48 48 47 44 41 39 38 39 40 40 40 40 40 40 40 39 39 40 41 42 43 44 45 46 47 49 49 47 46 44 42
29 31 34 36 39 41 41 42 45 49 52 53 54 54 54 54 54 53 52 53 56 58 59 60 60 59 57 57 56 55 54 54 55 56 55 54 54 54 53 52 50 50 51 51 50 49 49 48 48 48 48 49 52 54 53 52 50 49 48 46 43 41 39 40 41 42 42 41 40 40 42 41 40 40 41 42 43 45 46 47 48 48 49 49 48 45 42 40
32 34 36 38 40 40 41 44 48 51 53 55 54 54 54 55 54 52 53 55 57 59 61 61 61 60 58 57 56 55 55 56 57 57 56 56 56 56 55 54 53 53 52 51 50 49 48 47 48 49 49 50 53 53 52 51 50 49 48 45 44 43 42 42 43 43 42 41 41 42 43 42 40 40 41 43 44 45 46 48 49 49 49 48 46 42 39 36
34 36 39 40 41 41 43 48 52 54 55 56 56 55 56 55 54 53 54 56 58 60 61 60 59 59 58 57 55 54 55 55 56 56 56 56 57 58 58 57 56 55 53 52 51 50 49 49 50 51 50 52 54 53 52 52 51 49 48 47 46 45 44 44 44 44 43 43 43 42 43 43 41 41 43 44 44 45 46 47 48 49 49 47 43 38 35 33
38 41 43 43 42 43 47 51 54 55 56 56 57 57 56 55 55 55 54 55 57 58 58 58 59 59 59 58 57 55 55 54 54 55 55 56 57 58 58 57 56 54 53 51 50 49 49 50 51 50 51 53 55 54 53 52 51 49 48 48 47 45 44 44 45 45 44 44 43 43 44 44 42 42 43 44 44 45 46 47 48 48 47 45 39 35 33 32
43 45 45 44 44 47 51 54 55 56 57 57 57 56 56 56 55 55 54 54 54 55 56 58 60 60 60 60 60 58 56 54 53 54 55 56 56 55 55 54 53 51 50 48 47 48 48 49 50 51 52 55 55 53 52 52 51 50 49 49 46 44 44 45 46 45 44 45 44 43 43 43 42 43 44 45 45 47 47 47 47 46 43 40 35 32 31 31
47 48 47 45 46 50 54 56 57 58 58 58 57 56 56 56 56 56 55 53 53 53 54 56 58 59 59 59 59 58 56 54 54 54 54 54 54 54 53 52 51 49 47 47 47 48 49 50 51 52 54 55 54 53 52 52 51 50 49 48 46 45 45 45 46 46 45 45 44 43 43 43 43 44 45 46 47 48 48 48 46 41 37 33 31 30 29 29
50 49 48 46 47 52 56 57 58 58 59 58 57 56 56 56 55 55 54 52 51 51 52 54 57 58 59 58 56 56 56 55 55 55 54 54 54 54 54 53 51 50 49 49 49 50 50 51 52 53 54 54 54 54 53 53 51 49 48 46 45 46 45 46 46 46 46 46 45 44 44 43 44 46 47 48 48 48 49 47 42 35 31 31 30 28 27 28
52 50 49 48 50 54 56 58 59 59 59 59 58 57 55 54 54 53 52 50 48 49 52 55 57 58 59 58 57 56 56 56 56 55 54 54 54 54 55 54 53 52 52 52 52 51 52 52 53 54 55 54 54 54 52 51 50 49 48 46 46 46 46 46 47 47 48 47 45 45 45 45 46 48 47 47 47 48 47 44 36 31 30 31 29 28 28 29
52 50 50 50 52 55 57 59 59 58 57 57 56 54 52 51 50 49 49 49 49 50 52 54 56 57 57 58 58 58 57 56 55 55 55 56 55 55 55 55 54 54 54 53 52 51 51 52 54 55 56 55 55 53 50 50 50 50 49 48 47 48 47 47 48 49 48 47 46 46 47 46 46 46 45 45 45 45 43 38 33 30 31 31 30 29 30 30
52 50 50 51 53 55 55 55 55 54 53 51 49 48 47 47 47 47 47 49 50 51 51 53 54 55 55 56 57 58 57 56 56 55 55 56 56 56 56 56 55 55 55 54 53 52 51 52 53 55 56 56 55 53 51 52 53 53 52 51 50 50 49 49 50 49 48 47 47 47 47 45 45 45 46 45 44 41 37 33 32 32 33 34 33 33 33 33
54 52 51 51 52 53 53 52 50 48 46 44 43 42 44 45 47 48 48 48 47 47 49 51 52 53 54 55 56 57 57 56 56 56 56 56 56 57 56 56 56 56 55 54 53 53 52 53 54 55 57 57 57 56 55 55 56 55 54 52 52 51 50 51 51 50 49 49 48 48 47 44 44 45 46 45 42 38 35 33 33 34 36 36 37 37 36 36
56 54 52 52 52 53 53 52 50 47 46 45 44 45 48 49 49 48 48 47 46 46 46 47 49 51 53 54 55 56 56 55 56 56 56 57 57 57 57 57 57 57 56 55 55 55 55 55 57 58 59 60 60 58 58 57 56 55 54 53 52 52 52 53 54 53 51 50 48 47 46 44 44 45 45 43 39 35 35 35 35 37 38 39 40 41 40 39
56 55 54 53 53 53 53 52 52 52 51 50 50 50 50 50 48 47 47 47 47 47 48 49 50 51 53 54 55 56 55 56 56 56 57 58 58 59 59 59 59 59 58 58 58 58 58 59 60 62 63 63 62 60 59 58 57 56 55 54 54 54 55 55 55 54 52 49 47 45 43 43 44 45 44 42 38 35 34 35 37 39 41 43 44 44 43 42
57 55 54 53 53 53 53 53 53 54 53 53 52 51 49 48 47 47 48 48 49 50 50 51 51 51 52 52 52 53 54 55 56 56 57 58 59 60 61 61 62 61 61 61 61 60 60 61 62 64 64 64 62 60 59 58 57 56 55 55 54 54 54 55 54 51 49 47 45 44 42 43 44 44 42 41 39 36 35 36 38 41 43 46 47 47 47 45
58 56 55 54 53 53 53 54 53 53 53 53 52 51 50 48 47 47 48 49 50 50 50 50 50 50 50 49 49 49 50 51 53 55 57 59 60 62 63 64 65 65 65 64 63 63 62 63 63 64 64 63 62 60 58 57 56 55 54 54 53 53 53 52 51 48 45 44 43 42 42 42 42 41 40 40 39 36 35 37 40 43 45 48 50 50 50 49
59 57 55 54 54 53 53 54 54 53 53 53 52 51 50 48 47 47 47 48 48 48 48 49 49 48 48 48 48 48 48 50 51 53 55 58 60 62 63 65 66 66 66 65 64 64 64 64 64 63 62 62 60 59 58 57 56 56 55 54 53 53 53 50 48 46 44 43 42 41 41 40 39 37 37 38 38 36 35 36 40 44 47 49 51 51 52 53
59 58 57 56 55 54 53 53 53 52 52 51 51 50 49 47 46 46 46 46 47 47 47 47 46 46 47 48 48 48 48 49 50 52 54 56 58 60 61 63 64 64 64 63 63 62 62 62 63 62 62 61 61 60 59 59 59 57 56 54 54 54 52 49 47 46 43 42 41 40 39 38 37 35 35 35 36 35 34 35 39 44 48 51 52 52 53 55
58 58 58 56 55 54 53 51 50 49 49 48 48 47 46 44 44 44 45 45 45 45 45 44 44 44 45 46 47 48 48 48 48 50 52 54 56 58 59 60 61 60 60 60 59 59 60 60 61 61 62 63 62 62 62 62 61 58 56 54 53 52 51 49 47 45 43 42 41 40 39 37 36 34 32 34 36 35 34 35 39 43 48 52 54 53 54 55
53 55 56 55 54 52 50 48 46 46 45 44 43 42 41 41 42 43 43 42 42 42 43 43 42 42 43 43 45 46 46 45 44 45 47 50 53 55 57 57 57 57 56 56 56 57 58 59 59 60 61 62 62 63 65 64 61 58 56 53 51 50 49 48 46 43 42 42 41 40 39 37 36 34 32 33 35 37 35 35 39 43 47 52 55 55 55 56
Wind_Direction
264 263 262 261 261 260 260 260 259 258 256 253 250 247 245 244 244 244 244 243 243 242 242 241 241 241 242 242 243 243 243 243 243 243 243 242 243 243 244 244 245 245 246 246 247 248 248 249 249 250 250 251 252 253 254 256 256 257 257 257 259 261 262 264 265 266 268 268 268 267 266 265 264 264 264 264 264 265 265 264 264 263 263 263 263 264 264 264
264 263 262 260 259 259 258 258 258 258 258 256 253 250 247 245 244 243 243 243 242 242 242 241 241 240 240 241 241 242 242 242 242 243 243 243 243 244 244 244 245 245 246 246 247 248 248 249 249 249 250 251 252 252 254 255 256 256 257 257 259 260 262 264 265 267 268 268 268 267 266 265 265 265 265 265 265 266 266 265 264 263 263 262 262 262 261 261
263 262 261 260 259 258 257 256 256 257 257 257 256 254 251 248 245 243 243 242 242 242 241 241 241 240 240 240 240 241 241 242 242 242 243 243 243 244 244 244 244 245 245 246 247 247 248 249 249 249 250 251 251 252 253 254 255 255 256 257 258 260 262 264 266 267 268 267 267 266 266 265 265 265 266 266 266 266 265 264 264 264 263 262 262 260 260 260
261 261 261 260 260 259 257 256 255 255 255 255 255 255 254 251 248 245 243 242 242 241 241 241 241 240 240 239 239 240 240 241 241 242 242 242 242 243 243 244 244 245 245 246 246 247 248 248 249 249 250 251 251 252 253 253 254 255 256 257 259 261 263 264 266 267 267 267 267 266 265 265 265 266 266 267 266 265 265 264 264 264 264 263 262 261 261 260
260 260 260 260 260 259 258 256 254 253 253 253 253 254 254 253 251 247 244 242 241 241 241 241 240 240 240 239 239 239 239 240 240 241 241 241 241 242 242 243 244 244 245 246 246 247 247 248 249 250 250 251 251 252 252 253 253 255 256 258 259 261 263 264 265 266 267 267 267 266 265 265 266 266 267 267 266 266 265 265 264 264 264 264 264 263 261 259
260 260 260 260 259 259 258 256 255 253 252 252 252 252 252 252 252 250 247 244 241 240 240 240 240 240 239 239 239 238 238 239 239 240 240 240 240 241 241 242 243 244 245 245 246 247 248 248 249 250 250 251 251 252 252 253 255 256 258 259 260 261 263 264 265 266 267 267 266 265 265 265 266 267 267 267 267 266 265 264 264 264 265 265 265 264 262 259
259 259 259 259 258 258 257 256 255 253 252 251 251 250 250 250 251 250 249 246 243 241 239 239 239 239 239 239 239 238 238 238 238 239 240 240 240 240 241 241 242 243 244 245 246 246 247 248 249 250 250 251 251 251 253 254 256 258 259 260 261 262 263 264 264 265 266 266 266 265 265 265 266 266 267 267 266 266 265 265 265 265 264 265 265 263 262 261
260 259 259 258 258 257 257 256 255 254 252 251 250 249 249 249 249 249 249 248 245 243 240 239 238 238 238 238 238 238 237 237 237 238 239 239 239 240 240 240 241 241 242 243 245 246 247 248 249 249 250 250 251 252 254 256 258 259 260 261 262 263 263 264 264 265 265 266 266 266 266 265 265 266 266 266 265 265 265 266 265 264 263 263 263 262 262 262
260 260 260 259 258 257 257 256 256 255 254 252 250 249 248 247 247 248 248 248 247 245 243 240 237 237 237 238 238 238 237 237 237 237 238 238 238 239 239 239 239 240 241 243 244 245 246 247 248 249 249 250 252 254 255 257 258 260 261 262 263 264 264 265 265 266 266 266 267 266 266 265 265 266 265 265 264 264 265 265 264 263 262 261 260 260 261 261
260 259 259 258 258 257 257 256 256 255 255 253 251 249 247 246 245 245 246 246 246 245 244 242 239 236 236 237 237 237 237 237 236 236 237 237 237 238 238 239 239 240 241 242 243 244 246 247 248 249 250 252 254 255 256 257 258 260 262 263 264 264 265 266 266 266 265 266 267 268 267 266 266 265 264 264 265 266 266 265 264 263 262 260 259 259 260 259
259 258 258 258 257 257 256 256 256 256 255 253 251 248 246 244 243 244 244 244 244 244 244 244 241 237 235 235 236 237 236 236 236 236 236 236 237 237 238 239 239 240 241 242 243 244 245 247 248 250 251 253 254 255 256 257 259 261 262 264 264 265 265 265 265 265 266 266 267 268 268 268 266 265 264 264 265 266 266 265 265 264 262 260 259 259 259 258
259 258 258 257 257 257 256 256 255 255 253 252 249 247 245 243 242 241 241 241 242 243 243 243 243 240 236 235 235 236 236 236 236 236 236 236 236 237 238 238 239 240 241 242 243 244 246 247 249 251 252 253 254 255 256 257 259 260 262 264 264 264 264 264 264 265 266 265 266 267 268 268 267 266 266 265 265 265 266 265 264 264 263 261 259 258 258 258
259 258 258 257 257 256 256 255 253 252 250 249 247 245 243 241 240 239 239 239 240 240 241 242 243 241 238 236 234 234 235 236 236 236 236 236 236 236 237 238 239 240 241 242 244 245 247 248 250 251 252 253 254 255 256 258 260 261 263 264 263 263 262 263 264 265 264 265 266 267 267 267 267 267 267 267 267 267 266 265 264 263 262 261 260 259 259 258
259 258 257 256 255 255 254 252 250 249 247 246 244 243 241 239 238 237 237 237 238 238 239 240 241 242 241 238 235 233 234 235 236 235 235 235 235 236 236 237 238 240 241 243 244 246 247 248 250 251 252 253 254 256 258 260 261 262 262 262 262 261 261 262 262 263 263 264 265 266 266 267 267 267 268 268 268 268 267 266 264 263 262 261 260 260 260 259
259 257 255 254 253 252 251 249 248 246 245 244 242 241 240 238 237 236 236 236 236 237 237 238 239 241 241 239 235 233 233 234 235 234 235 235 235 235 236 237 238 239 241 242 244 246 247 248 250 251 252 254 256 259 260 261 261 260 258 257 257 257 259 260 261 261 262 263 263 264 266 267 267 268 268 269 269 268 268 268 266 264 262 261 261 261 261 261
257 255 254 252 251 250 248 248 247 245 244 243 242 241 240 238 236 235 235 235 235 235 236 237 237 239 240 239 236 233 232 233 233 233 234 234 234 235 236 237 238 239 240 242 244 245 247 248 250 252 254 256 258 259 259 258 257 255 253 252 254 255 258 259 260 260 261 262 263 264 266 267 267 268 269 269 269 269 268 268 266 265 263 262 261 261 261 262
257 255 253 251 250 249 249 248 247 246 245 244 243 242 241 239 237 236 235 235 235 235 235 235 236 237 238 237 235 233 232 232 232 232 233 233 233 234 235 236 237 239 240 241 243 245 247 248 250 252 254 255 256 256 256 254 251 250 249 251 254 256 257 258 258 259 260 262 263 264 266 267 268 269 269 269 269 269 268 266 264 263 262 262 262 262 262 262
258 256 254 253 252 251 250 249 248 248 247 246 245 243 242 240 239 237 236 235 235 235 234 234 235 235 235 234 232 232 231 232 232 231 231 232 233 233 234 235 236 238 239 241 243 244 246 247 249 251 253 253 253 251 249 247 246 247 249 251 254 255 255 255 256 258 260 261 263 264 266 269 271 270 269 268 268 268 267 265 264 261 260 261 262 262 262 262
259 258 256 255 254 253 253 252 251 249 248 247 246 245 243 241 239 238 237 236 235 234 233 233 232 233 233 231 230 230 229 230 231 231 231 231 231 232 233 234 236 237 238 240 241 242 244 246 247 248 248 246 244 242 241 242 244 246 249 250 251 252 253 254 256 257 259 262 264 266 268 271 272 271 270 270 269 268 266 264 263 261 260 260 261 262 262 261
261 260 259 258 257 256 255 254 252 251 250 249 247 245 244 242 240 238 236 235 233 232 231 231 230 230 230 229 228 227 227 227 227 229 231 230 229 230 231 233 234 235 237 238 239 240 241 243 243 242 240 238 237 238 240 242 244 246 247 247 248 250 253 254 256 258 261 263 266 268 270 271 272 273 272 271 269 266 265 263 262 260 259 260 261 261 261 260
264 263 261 260 259 257 256 255 253 252 251 249 247 246 244 242 239 237 235 233 231 229 228 227 226 226 226 226 225 224 224 224 222 225 230 230 229 229 230 231 232 233 234 235 236 238 239 239 237 235 235 235 236 238 240 241 243 244 244 246 248 252 254 256 258 260 263 266 269 270 270 271 273 273 272 268 265 263 262 260 259 258 258 258 259 260 260 261
266 265 263 261 260 258 256 255 253 252 250 249 247 245 242 240 237 234 232 229 227 225 224 223 222 222 222 222 221 221 220 221 221 224 229 230 230 229 228 228 229 230 231 233 234 234 233 232 231 232 233 234 236 237 239 240 240 242 245 247 250 254 256 258 260 263 266 269 270 270 271 271 269 268 267 265 262 261 259 257 257 257 258 258 258 259 260 261
267 265 263 261 259 258 256 254 252 250 248 246 243 240 238 235 232 229 227 225 223 221 219 219 218 218 218 217 217 217 217 217 219 222 226 227 227 225 224 224 226 227 229 230 230 228 227 227 229 231 232 234 234 235 237 238 240 243 246 249 253 257 259 261 264 267 269 271 272 271 269 265 261 260 263 263 263 261 258 256 256 257 257 257 257 257 258 260
267 264 262 259 257 255 253 251 248 245 243 240 237 234 231 228 225 223 221 219 217 215 213 214 214 214 214 213 214 214 214 215 217 220 222 221 221 221 221 222 224 225 226 225 224 224 225 227 229 231 231 232 232 233 236 238 241 244 248 252 256 258 261 265 268 270 272 273 272 269 263 259 258 258 260 262 262 261 259 258 256 255 255 255 254 254 254 256
264 261 258 255 253 250 247 244 241 239 236 233 229 226 223 220 217 215 213 211 208 207 208 209 210 210 210 209 211 213 215 215 216 217 217 217 217 218 218 219 221 222 221 221 221 223 225 226 228 229 229 230 231 233 237 240 243 246 250 253 257 260 263 267 269 272 273 272 268 265 262 260 258 256 256 258 259 260 262 260 257 253 251 251 251 252 252 252
260 256 252 249 246 243 240 237 235 232 228 224 221 218 215 212 209 207 205 202 200 201 203 204 205 206 205 205 209 212 213 213 212 213 214 214 215 216 217 217 217 217 217 218 220 222 224 225 226 227 227 229 231 235 239 242 245 249 251 254 258 261 265 268 270 272 271 268 265 264 263 260 256 251 251 253 257 261 264 263 261 257 252 250 250 249 249 249
254 250 246 243 240 236 232 230 226 222 218 214 211 209 205 202 200 199 196 194 193 195 198 201 202 201 200 201 206 208 208 207 207 210 211 210 213 214 214 214 214 216 217 218 221 222 223 225 225 225 227 229 233 237 240 244 247 250 252 255 259 262 266 269 270 270 269 267 265 264 261 258 254 250 250 253 257 262 265 266 266 263 256 252 250 249 248 248
248 243 240 236 231 228 224 220 215 211 208 205 202 199 195 192 191 191 189 188 188 191 194 197 198 198 197 200 203 204 204 202 203 209 209 208 211 211 211 213 214 215 216 218 220 221 221 223 224 225 227 230 234 238 242 245 249 252 253 255 259 263 266 269 270 271 270 268 266 264 261 256 254 253 255 259 260 262 266 268 268 266 262 257 254 253 251 250
241 236 231 226 222 218 213 209 205 202 200 198 196 193 189 186 185 184 183 183 185 189 192 195 196 195 195 197 200 202 202 200 203 210 209 206 210 210 210 213 214 215 216 217 220 221 221 223 224 226 229 231 236 240 244 247 250 253 254 256 259 263 265 268 272 273 270 268 268 266 262 259 259 260 263 265 264 263 264 266 266 266 265 263 262 260 258 256
232 226 221 217 212 208 204 200 197 195 194 192 189 186 183 181 180 178 179 181 184 189 191 193 194 193 193 196 199 200 200 200 204 211 210 207 210 211 212 214 215 216 217 218 222 223 222 224 226 228 231 234 238 242 246 249 251 254 256 257 258 261 264 269 273 271 269 270 269 265 264 265 265 265 267 268 268 267 265 265 265 265 265 265 264 264 263 262
222 217 211 207 203 199 195 192 191 190 188 185 182 179 178 177 175 175 178 181 185 189 191 193 193 192 193 196 199 200 200 201 204 210 210 207 210 214 215 216 217 217 218 220 224 225 224 225 227 228 231 234 238 242 245 248 251 254 256 256 257 259 264 269 270 269 270 269 265 265 268 270 269 269 269 270 271 271 270 270 270 270 269 268 267 266 264 262
212 207 203 199 195 192 189 188 187 184 181 179 177 175 174 173 173 175 178 181 186 190 191 193 193 193 194 197 200 200 200 200 204 210 211 208 210 214 214 215 215 215 216 219 223 224 224 225 227 229 231 235 239 242 245 246 249 252 254 255 256 259 264 267 267 267 267 265 265 268 271 271 271 272 272 273 273 274 274 274 274 275 275 274 272 270 267 264
202 198 195 191 188 186 185 184 181 177 175 175 174 172 171 171 173 175 178 182 188 190 191 193 193 193 195 197 200 201 200 202 205 210 211 209 211 214 215 215 215 215 216 219 222 223 224 226 227 230 232 235 238 241 243 246 249 251 252 253 255 259 263 264 263 264 265 267 269 271 271 272 274 275 275 276 276 276 276 276 277 278 278 278 277 275 272 267
194 190 187 185 183 182 180 177 174 172 172 172 171 169 170 172 175 176 179 185 190 191 191 192 193 194 195 198 200 201 201 204 207 211 211 211 213 215 217 217 217 217 219 221 224 226 227 229 230 232 233 235 238 240 244 247 249 251 252 253 255 258 260 259 261 264 268 271 272 271 271 272 275 276 277 277 277 278 278 279 279 280 280 280 279 277 275 270
187 183 181 180 179 177 173 170 169 169 169 170 169 169 172 175 176 177 182 188 192 192 192 192 192 193 196 198 199 200 202 205 208 210 211 212 214 215 217 217 217 218 219 222 225 227 228 230 232 233 234 236 239 242 245 247 249 250 250 251 253 255 256 259 263 267 270 272 272 272 272 273 275 277 278 278 278 278 279 280 281 282 283 281 280 277 272 267
179 176 174 175 174 171 168 167 167 168 169 169 169 171 175 177 178 181 185 190 193 194 193 192 193 195 197 198 199 201 203 207 209 211 212 213 214 215 216 217 218 219 219 221 223 225 227 229 231 233 234 236 240 242 244 246 247 248 249 250 252 255 258 262 265 267 270 272 272 272 273 274 277 278 280 280 280 279 279 281 282 284 283 281 279 275 266 257
172 171 172 173 171 168 166 166 167 168 169 170 172 174 177 178 181 184 188 192 195 195 194 194 195 197 199 200 200 201 203 206 209 211 213 214 215 216 217 218 219 219 220 222 225 228 230 232 234 236 237 238 241 242 244 245 246 247 249 251 254 257 261 263 265 268 271 270 270 271 272 275 279 280 280 281 280 281 281 282 283 283 282 279 276 269 258 245
169 170 171 172 169 166 165 165 167 169 171 173 175 177 178 181 183 186 189 193 196 196 196 196 198 199 201 202 202 203 203 205 209 211 212 213 214 215 216 217 220 221 223 227 231 234 236 237 238 239 240 241 242 244 245 246 247 248 250 253 256 260 262 264 266 268 269 269 270 271 273 276 279 279 279 279 280 281 282 284 285 283 279 274 268 260 247 233
169 170 170 170 168 165 165 166 168 171 174 176 177 179 181 183 185 187 190 193 196 197 198 199 200 202 205 206 206 206 206 207 210 211 212 213 214 214 216 219 223 227 230 234 238 240 240 241 240 240 241 242 243 244 244 245 246 249 251 255 259 262 264 265 267 268 269 269 270 271 272 275 277 278 278 278 280 282 285 288 287 280 272 264 256 248 234 220
169 170 170 169 168 167 167 168 171 174 177 179 179 181 184 186 187 189 191 193 195 197 199 201 202 203 206 207 209 211 211 212 214 215 215 217 217 218 220 223 227 230 232 234 235 236 237 239 240 241 241 241 243 243 244 245 248 251 254 258 261 263 264 265 266 267 267 267 268 270 272 273 275 276 277 279 282 284 288 288 282 272 260 250 243 233 218 212
169 171 170 168 168 169 170 173 176 178 180 182 183 184 185 187 190 192 193 195 196 198 201 203 204 205 206 207 209 212 214 216 219 220 221 222 224 225 226 228 230 232 233 233 232 232 233 234 236 238 239 240 241 243 246 249 251 254 256 259 261 262 263 263 263 263 264 265 268 270 271 273 275 276 277 280 282 284 286 284 273 259 247 238 228 216 208 209
169 171 171 170 170 172 175 178 180 182 183 185 186 186 187 190 192 193 196 198 199 201 203 206 207 207 208 208 210 212 214 216 219 222 224 226 227 229 230 231 232 232 233 233 233 233 233 234 236 237 239 240 241 243 246 250 252 254 256 258 259 259 259 259 260 261 262 265 267 268 270 274 275 275 275 277 281 282 281 274 260 247 237 226 216 208 205 206
169 172 173 173 172 175 178 181 183 185 186 187 187 187 189 192 194 196 199 203 204 205 206 208 209 210 210 211 212 214 215 217 219 221 224 225 226 227 229 230 230 231 231 232 232 232 233 234 236 238 240 242 243 245 247 250 253 256 257 258 258 258 258 258 258 259 261 263 265 267 270 273 272 271 273 277 280 279 273 262 249 239 228 217 209 205 204 202
170 172 174 175 175 177 179 182 185 187 188 188 188 189 192 195 197 198 201 205 208 210 212 213 213 213 213 214 215 216 217 219 221 223 225 226 227 227 228 229 229 230 230 231 231 231 232 233 236 239 242 244 246 247 250 253 256 259 260 260 259 258 258 257 258 259 260 261 264 266 269 269 268 271 275 280 281 274 264 255 244 234 224 214 207 204 202 200
172 172 174 176 177 178 180 182 184 187 189 190 191 193 196 198 199 201 203 205 208 211 215 217 218 218 217 216 217 217 218 220 222 224 226 228 228 229 229 230 230 230 231 231 232 233 233 235 238 242 244 247 249 251 253 255 257 259 259 258 257 257 256 256 257 259 261 262 264 265 266 266 268 272 275 279 281 273 262 254 244 233 224 214 207 205 203 200
173 173 175 177 178 180 182 183 185 188 190 192 194 197 200 201 201 203 207 209 211 213 215 218 220 221 221 219 218 219 220 221 223 225 226 228 229 230 231 232 232 233 233 234 235 236 238 240 242 245 247 250 252 253 255 256 257 258 257 256 255 255 256 257 258 260 261 262 262 262 264 265 268 272 274 276 279 275 264 253 243 233 224 216 210 208 206 203
175 176 177 178 179 181 183 185 188 190 192 194 196 199 202 204 204 205 208 212 214 216 218 220 222 225 226 225 223 222 222 224 226 227 229 230 231 232 233 234 234 234 235 236 237 239 241 243 245 247 249 252 253 255 256 257 257 256 256 255 255 255 256 258 259 261 261 261 261 261 263 265 267 271 274 275 276 272 262 251 241 233 224 217 213 211 209 206
178 178 180 180 182 184 185 187 190 193 195 196 198 200 204 207 208 209 211 214 217 220 222 223 225 228 230 231 231 228 227 228 229 230 232 233 234 235 236 236 236 236 236 237 238 240 242 244 246 249 251 253 254 255 255 255 254 254 253 254 255 255 256 257 259 260 260 260 261 261 263 265 268 272 276 276 273 265 256 248 240 233 226 218 214 213 210 208
181 181 182 183 184 186 188 190 192 194 197 199 201 204 207 210 212 214 216 218 222 225 227 228 230 232 235 236 236 234 231 231 231 232 233 235 236 236 237 238 239 239 239 240 241 242 243 245 247 249 251 253 254 254 253 252 252 252 252 253 254 254 255 257 258 258 258 258 260 261 262 266 269 273 277 276 270 260 252 246 239 233 228 221 216 214 212 211
185 185 186 187 188 189 191 194 195 197 200 203 205 208 212 214 217 219 222 225 228 230 232 233 233 234 236 237 238 236 233 231 230 231 232 234 235 236 237 238 239 240 241 241 241 242 243 244 245 247 248 249 251 251 251 251 251 252 253 253 254 255 256 257 256 256 256 256 258 259 261 264 268 273 278 275 267 259 252 246 239 233 229 224 219 216 215 214
189 191 191 192 192 193 195 197 199 201 204 208 211 215 218 221 224 226 228 229 230 232 233 233 232 233 234 235 237 236 235 232 230 230 231 232 233 234 235 237 238 239 239 240 241 241 241 242 243 244 245 246 248 249 250 252 252 253 254 255 255 256 257 257 256 255 255 255 257 259 261 263 267 273 276 272 266 260 254 247 241 234 228 224 222 220 219 218
190 193 195 197 198 200 201 203 205 208 211 215 218 221 223 224 225 226 227 228 229 231 232 232 231 232 234 236 237 237 236 234 231 231 233 234 235 235 235 236 236 237 238 239 240 240 241 242 242 242 243 244 246 247 249 251 252 253 254 255 255 255 256 257 256 256 255 255 257 260 262 264 267 271 273 271 266 261 255 248 243 237 230 225 224 223 223 223